Flag for United Kingdom Weather past 2 weeks in Weymouth, England, United Kingdom

Now
60 °F

Cool.


Feels Like: 55 °F
Forecast: 58 / 64 °F
Wind: 30 mph from West

Location: Isle Of Portland

Current Time: Jul 7, 2015 at 9:27:08 PM

Latest Report: Jul 7, 2015 at 8:00 PM


Visibility: 6 mi

Pressure: 29.84 "Hg

Humidity: 84%

Dew point: 54 °F

Location of WeymouthLocation

Historic Weather in Weymouth — Graph

°F

Weymouth temperature yesterday

Maximum temperature yesterday: 65 °F (at 4:00 PM)
Minimum temperature yesterday: 57 °F (at 5:00 AM)
Average temperature yesterday: 61 °F

Past Weeks' High & Low Weather Summary

 TemperatureHumidityPressure
High67 °F (Jul 2, 4:00 PM)100% (Jun 26, 8:00 PM)30.27 "Hg (Jun 26, 8:00 PM)
Low53 °F (Jun 23, 5:00 AM)65% (Jun 22, 8:00 PM)29.81 "Hg (Jul 7, 9:00 AM)
Average60 °F88%30.09 "Hg
* Reported Jun 22 8:00 PM — Jul 7 8:00 PM, Weymouth, Weather by CustomWeather, © 2015

Note: Actual official high and low records may vary slightly from our data, if they occured in-between our weather recording intervals... More about our weather records

Advertising

Weymouth weather history for previous 24 hours

 ConditionsComfort  
Time TempWeatherWind HumidityBarometerVisibility
8:00 PM
Tue, Jul 7
60 °FCool.30 mph84%29.84 "Hg6 mi
7:00 PM60 °FCool.30 mph81%29.84 "Hg7 mi
6:00 PM61 °FCool.30 mph78%29.84 "Hg7 mi
5:00 PM61 °FCool.29 mph81%29.85 "Hg7 mi
4:00 PM64 °FMild.28 mph79%29.84 "Hg9 mi
3:00 PM64 °FMild.25 mph80%29.84 "Hg9 mi
2:00 PM64 °FMild.22 mph82%29.84 "Hg8 mi
1:00 PM65 °FMild.20 mph82%29.83 "Hg7 mi
12:00 PM63 °FMild.20 mph87%29.84 "Hg8 mi
11:00 AM62 °FSmoke.21 mph89%29.83 "Hg6 mi
10:00 AM62 °FCool.15 mph94%29.82 "Hg7 mi
9:00 AM61 °FFog.18 mph99%29.81 "Hg4 mi
8:00 AM60 °FFog.17 mph100%29.83 "Hg3 mi
7:00 AM60 °FCool.16 mph100%29.84 "Hg2 mi
6:00 AM60 °FLight freezing rain. Cloudy.18 mph98%29.85 "Hg2 mi
5:00 AM60 °FCool.14 mph92%29.85 "Hg10 mi
4:00 AM61 °FCool.17 mph89%29.87 "Hg12 mi
3:00 AM61 °FCool.15 mph85%29.89 "Hg17 mi
2:00 AM61 °FCool.13 mph85%29.91 "Hg16 mi
1:00 AM60 °FCool.13 mph87%29.95 "Hg13 mi
12:00 AM59 °FCool.10 mph90%29.95 "Hg14 mi
11:00 PM
Mon, Jul 6
59 °FCool.9 mph91%29.98 "Hg11 mi
9:00 PM59 °FCool.8 mph92%30.01 "Hg12 mi
Weather by CustomWeather, © 2015

See weather overviewHow to use our weather pages